Location: Fort Collins
(40.5850°N, 105.0840°W)
Time: 00:18:41
(UTC-06:00)

Daily predictions for brighter satellites

Satellite Brightness Start Highest point End
(mag) Time Altitude Azimuth Time Altitude Azimuth Time Altitude Azimuth
CZ-2D R/B 4.4 02:51:19 10° NNE 02:53:19 21° NE 02:53:19 21° NE
Cosmos 1980 Rocket 4.3 03:01:00 22° NNE 03:01:00 22° NNE 03:02:54 10° NNE
Resurs 1-4 Rocket 4.4 02:55:58 10° NNE 02:57:40 20° NE 02:57:40 20° NE
Cosmos 2263 Rocket 4.1 03:09:45 10° N 03:12:41 24° NNE 03:12:41 24° NNE
Lacrosse 4 Rocket 4.4 03:46:13 10° NNE 03:48:35 15° NE 03:50:57 10° E
Cosmos 2315 Rocket 4.4 03:54:52 58° N 03:54:52 58° N 03:59:48 10° N
SL-16 R/B 4.1 04:01:24 23° NNW 04:01:24 23° NNW 04:03:39 10° NNW
Cosmos 2322 Rocket 2.9 04:09:54 45° N 04:09:54 45° N 04:13:56 10° NNE
SL-16 R/B 2.8 04:13:43 46° NNW 04:13:43 46° NNW 04:17:58 10° NNE
CENTAUR R/B 3.3 04:17:17 39° NW 04:17:17 39° NW 04:23:29 10° NNE
COSMOS 2428 4.5 04:14:19 18° SE 04:17:11 27° ESE 04:21:50 10° NE
ADEOS Rocket 3.5 04:12:20 10° N 04:16:16 42° NNW 04:16:16 42° NNW
USA 215 3.5 04:11:36 10° ESE 04:18:05 66° NE 04:24:36 10° NW
ARIANE 5 R/B 4.2 04:22:13 10° N 04:24:32 23° NNW 04:24:32 23° NNW
Cosmos 2074 Rocket 4.1 04:21:09 10° N 04:27:26 74° E 04:32:01 19° SSE
Cosmos 1544 Rocket 4.0 04:30:19 10° N 04:34:09 60° NNE 04:34:09 60° NNE
CZ-2D R/B 3.6 04:31:37 10° N 04:34:39 25° NW 04:34:39 25° NW
Cosmos 1812 4.4 04:40:07 27° N 04:40:07 27° N 04:41:57 10° N
CZ-4B R/B 3.7 04:35:43 10° NNE 04:38:35 43° ENE 04:38:35 43° ENE
Cosmos 2360 Rocket 2.0 04:39:41 71° SSW 04:40:20 87° WNW 04:46:01 10° NNE
Resurs 1-4 Rocket 3.7 04:36:16 10° NNW 04:38:45 21° NW 04:38:45 21° NW
Cosmos 1980 Rocket 4.2 04:42:46 14° NW 04:42:46 14° NW 04:45:05 10° NNW
Okean O Rocket 1.8 04:42:09 10° NNE 04:46:35 70° ESE 04:47:18 58° SSE
Cosmos 1340 3.0 04:52:57 62° NNE 04:52:57 62° NNE 04:56:10 10° N
PAYLOAD B 4.3 04:51:08 10° NNE 04:56:46 78° ESE 05:00:19 24° S
Cosmos 2263 Rocket 4.1 04:53:28 10° NW 04:54:17 14° NW 04:54:17 14° NW
Cosmos 2184 Rocket 3.9 04:55:39 10° NNW 05:01:46 62° W 05:07:20 13° S
Meteor 1-12 Rocket 4.1 04:56:33 10° NNW 05:02:13 75° W 05:07:54 10° S
Cosmos 1743 3.8 04:58:42 10° N 05:02:26 44° E 05:06:07 10° SSE
Cosmos 1777 Rocket 3.9 04:57:21 10° NNW 05:02:35 62° WSW 05:07:47 10° S
DELTA 2 R/B (1) 3.9 05:01:20 43° SSW 05:02:44 55° SSE 05:08:08 10° E
BREEZE M DEB (TANK) 4.5 04:48:51 10° WNW 05:03:46 52° N 05:08:07 10° E
ATLAS 5 CENTAUR R/B 4.4 04:59:30 10° NNW 05:04:31 28° NE 05:09:53 10° E
Cosmos 2333 Rocket 4.0 05:00:28 10° SSE 05:05:19 30° ESE 05:10:13 10° NE
Meteor 1-18 Rocket 4.2 05:04:42 45° WSW 05:05:59 55° WNW 05:11:29 10° N
ADEOS II 2.0 05:03:06 10° NNE 05:08:24 88° WNW 05:11:50 22° SSW
Cosmos 1455 Rocket 3.0 05:04:23 10° NNW 05:08:43 58° W 05:09:09 55° WSW
Lacrosse 5 3.6 05:14:12 17° S 05:14:12 17° S 05:15:31 10° S
EO 1 Del DPAF 3.1 05:09:28 29° S 05:11:18 77° WSW 05:15:11 10° NNW
MOS 1 Rocket 3.7 05:08:03 10° N 05:12:28 39° WNW 05:12:33 39° WNW
Cosmos 2322 3.9 05:11:53 39° WSW 05:13:42 54° WNW 05:19:20 10° NNE
Okean 1 3.8 05:15:48 41° WNW 05:15:48 41° WNW 05:19:21 10° N
Meteor 1-13 Rocket 4.2 05:16:31 10° S 05:22:02 84° E 05:27:39 10° N
Cosmos 1238 Rocket 1.9 05:25:24 48° S 05:26:08 86° W 05:29:06 10° N
Cosmos 1975 3.4 05:22:53 10° NNW 05:26:22 36° W 05:26:22 36° W
Lacrosse 4 Rocket 1.3 05:23:31 10° NW 05:27:40 61° WSW 05:31:53 10° SSE
Tiangong 2 1.0 05:31:20 46° WNW 05:32:09 80° NNE 05:35:17 10° ESE
Cosmos 2333 4.1 05:28:11 16° SSW 05:32:44 82° WNW 05:38:29 10° NNE
Cosmos 1500 4.5 05:29:43 10° NNW 05:31:56 24° WNW 05:31:56 24° WNW
Cosmos 1536 Rocket 4.0 05:31:52 30° WSW 05:33:20 40° WNW 05:37:33 10° N
Cosmos 1844 4.1 05:29:26 10° NNW 05:35:12 68° ENE 05:40:52 10° SSE
Cosmos 2154 Rocket 3.9 05:29:18 10° NNW 05:35:26 64° W 05:41:32 10° S
Meteor PRIRODA 3.6 05:32:40 10° N 05:36:27 83° WNW 05:40:12 10° SSW
Cosmos 2208 Rocket 4.1 05:33:39 18° SW 05:37:37 61° WNW 05:43:02 10° NNE
CZ-4B DEB 4.4 05:32:36 10° N 05:37:59 51° WNW 05:42:36 14° SW
CZ-4B R/B 3.5 05:36:44 10° N 05:42:08 47° WNW 05:46:53 13° SW
Okean 1-7 Rocket 3.6 05:40:51 10° S 05:45:22 90° ESE 05:49:54 10° N
IRAS Rocket 4.5 05:40:20 10° N 05:45:38 48° WNW 05:50:48 11° SW
RUBIN 8/PSLV 4.4 05:41:53 10° N 05:46:11 76° WNW 05:50:27 10° SSW
PSLV R/B 4.3 05:45:11 10° N 05:49:05 34° WNW 05:51:46 18° SW
Cosmos 2322 Rocket 4.2 05:52:35 10° NW 05:53:36 10° NW 05:54:36 10° NNW
Cosmos 2181 Rocket 3.9 05:48:53 10° SSW 05:55:03 72° W 06:01:21 10° N
Cosmos 1980 4.2 05:49:34 10° S 05:55:08 63° ESE 06:00:43 10° NNE
ERS-2 2.2 05:51:57 10° N 05:55:34 54° WNW 05:59:10 10° SSW
ISS -2.1 05:57:03 17° SW 05:57:03 17° SW 05:59:11 10° S
SL-16 R/B 4.3 05:56:59 10° NW 05:57:42 10° NW 05:58:25 10° NW
SL-8 Rocket 4.0 05:53:02 10° N 05:59:17 89° E 06:05:28 10° S
CZ-3A R/B -1.3 05:59:20 59° WNW 05:59:23 61° NW 06:01:00 10° NE
Gblst 52 Del rocket 4.4 05:54:16 10° WNW 06:00:01 67° SW 06:06:31 10° SE
Meteor 1-23 Rocket 4.3 05:54:25 10° S 06:00:13 90° SSW 06:06:03 10° N
COSMOS 2428 3.1 05:56:23 13° SW 06:01:11 43° WNW 06:06:36 10° N
USA 215 3.8 05:55:24 10° SSE 06:01:19 35° SW 06:07:14 10° WNW
Thor Agena Rocket 3.4 05:58:27 10° SSE 06:03:30 81° WSW 06:08:34 10° NNW
Okean 2 3.5 05:59:56 10° S 06:04:04 80° E 06:08:16 10° N
Cosmos 1606 Rocket 3.9 06:01:13 10° N 06:05:42 74° E 06:10:10 10° SSE
Cosmos 2219 Rocket 2.2 06:02:04 10° SSW 06:07:36 65° WNW 06:13:11 10° NNE
Meteor 2-9 Rocket 4.2 06:03:05 10° NNW 06:08:46 69° W 06:14:14 10° S
Cosmos 2150 Rocket 4.1 06:05:22 10° NNW 06:10:41 86° ENE 06:16:03 10° SSE
USA 229 DEB 3.7 06:04:57 10° SW 06:11:46 77° NW 06:18:45 10° NNE
USA 229 3.7 06:05:03 10° SW 06:11:53 77° NW 06:18:51 10° NNE
Radarsat Rocket 4.2 06:06:08 10° NNE 06:12:08 73° ESE 06:17:56 10° S
Cosmos 2341 Rocket 4.3 06:07:12 10° NNW 06:13:03 43° W 06:18:51 10° SSW
CZ-4B R/B 4.4 06:09:00 10° N 06:13:20 47° WNW 06:17:38 10° SW
Meteor 1-28 Rocket 3.9 06:09:37 10° SSE 06:13:21 59° ENE 06:17:08 10° N
Cosmos 1844 Rocket 3.0 06:11:40 10° NW 06:16:52 41° WSW 06:22:02 10° S
Meteor 1-15 Rocket 4.3 06:13:42 10° NNW 06:19:38 78° W 06:25:32 10° S
Cosmos 990 Rocket 4.1 06:16:35 10° NNW 06:21:48 82° ENE 06:26:57 10° SSE
Cosmos 1898 Rocket 3.6 06:17:13 10° NNW 06:22:19 56° WSW 06:27:21 10° S
Okean O Rocket 3.6 06:20:43 10° NW 06:22:22 12° WNW 06:24:00 10° W
Cosmos 2218 Rocket 4.0 06:16:06 10° N 06:22:29 74° W 06:28:47 10° S
Cosmos 1441 Rocket 3.9 06:19:55 10° S 06:23:48 63° E 06:27:45 10° NNE
Cosmos 468 Rocket 4.2 06:19:49 10° SW 06:24:51 52° WNW 06:29:58 10° N
Cosmos 2360 Rocket 4.0 06:22:10 10° W 06:25:11 14° NW 06:28:14 10° NNW
Cosmos 371 Rocket 3.9 06:21:37 10° S 06:26:23 61° ESE 06:31:12 10° NNE
Cosmos 405 Rocket 3.0 06:23:31 10° SSW 06:27:29 51° WNW 06:31:26 10° N
Cosmos 2278 Rocket 2.2 06:21:50 10° NNW 06:27:32 83° WSW 06:33:11 10° SSE
NOSS 3-1 (C) 4.0 06:22:19 10° SSW 06:27:56 60° ESE 06:34:12 10° NE
Cosmos 332 Rocket 3.9 06:24:10 10° SSW 06:29:04 87° ESE 06:34:00 10° NNE
BREEZE-M DEB (TANK) 4.4 06:25:19 10° WSW 06:29:48 68° NNW 06:52:34 10° ENE
Meteor 2-4 Rocket 4.2 06:26:20 10° SW 06:31:32 38° WNW 06:36:38 10° N
Cosmos 2237 Rocket 2.2 06:26:57 10° SSW 06:32:37 70° WNW 06:38:20 10° NNE
